Retour au catalogue

NOAA 16 DEB

ActifSSO
NORAD 41159·DEBRIS·🇺🇸 United States

Lancé Sep 21, 2000 depuis Vandenberg Space Force Base

Loading…

Prochains Passages (prochaines 24 heures)

TLE

FraisSource: Space-Track

Époque: Sep 13, 2026, 10:22 UTC

1 41159U 00055CS  26256.43237313  .00002055  00000-0  75618-3 0  9999
2 41159  98.6032 332.4685 0017499 276.8849  83.0345 14.33629437559458

Suivez NOAA 16 DEB en temps réel avec AllMySat

Download on the App Store